Flag Weather past 2 weeks in Crawley, England, United Kingdom

Now
52 °F

Light rain. Passing clouds.


Feels Like: 49 °F
Forecast: 45 / 54 °F
Wind: 8 mph from North

Location: London / Gatwick Airport

Current Time: Nov 23, 2014 at 3:59:13 AM

Latest Report: Nov 23, 2014 at 3:20 AM


Visibility: 6 mi

Pressure: 29.95 "Hg

Humidity: 100%

Dew point: 52 °F

Location of CrawleyLocation

Historic Weather in Crawley — Graph

°F

Crawley temperature yesterday

Maximum temperature yesterday: 57 °F (at 10:50 AM)
Minimum temperature yesterday: 52 °F (at 12:20 AM)
Average temperature yesterday: 56 °F

Past Weeks' High & Low Weather Summary

 TemperatureHumidityPressure
High57 °F (Nov 8, 12:20 PM)100% (Nov 8, 9:20 PM)30.27 "Hg (Nov 8, 9:20 PM)
Low39 °F (Nov 14, 11:20 PM)67% (Nov 9, 1:20 PM)29.33 "Hg (Nov 11, 11:20 PM)
Average49 °F92%29.70 "Hg
* Reported Nov 8 2:20 AM — Nov 23 2:20 AM, Crawley, Weather by CustomWeather, © 2014

Note: Actual official high and low records may vary slightly from our data, if they occured in-between our weather recording intervals... More about our weather records

Advertising

Crawley weather history for previous 24 hours

 ConditionsComfort  
Time TempWeatherWind HumidityBarometerVisibility
2:20 AM
Nov 23
55 °FFog.No wind100%29.95 "Hg1 mi
1:50 AM55 °FFog.2 mph100%29.95 "Hg1 mi
1:20 AM55 °FFog.No wind100%29.95 "Hg1 mi
12:50 AM55 °FFog.No wind100%29.98 "Hg0 mi
12:20 AM55 °FFog.3 mph100%29.98 "Hg0 mi
11:50 PM
Nov 22
55 °FFog.2 mph100%29.98 "Hg1 mi
11:20 PM55 °FFog.2 mph100%29.98 "Hg1 mi
10:50 PM55 °FDrizzle. Fog.2 mph100%29.98 "Hg1 mi
10:20 PM55 °FDrizzle. Fog.2 mph100%29.98 "Hg1 mi
9:50 PM55 °FFog.No wind100%29.98 "Hg1 mi
9:20 PM55 °FFog.3 mph100%29.98 "Hg1 mi
8:50 PM57 °FFog.2 mph94%29.98 "Hg1 mi
8:20 PM57 °FFog.2 mph94%29.98 "Hg1 mi
7:50 PM57 °FFog.2 mph94%29.98 "Hg1 mi
7:20 PM57 °FFog.3 mph94%29.98 "Hg1 mi
6:50 PM57 °FFog.3 mph94%29.95 "Hg1 mi
6:20 PM57 °FFog.2 mph94%29.95 "Hg2 mi
5:50 PM57 °FFog.3 mph94%29.95 "Hg2 mi
5:20 PM57 °FFog.5 mph94%29.95 "Hg2 mi
4:50 PM57 °FFog.5 mph94%29.95 "Hg1 mi
4:20 PM57 °FFog.5 mph94%29.95 "Hg1 mi
3:50 PM57 °FFog.3 mph94%29.92 "Hg2 mi
3:20 PM57 °FDrizzle. Fog.5 mph94%29.92 "Hg2 mi
2:50 PM57 °FDrizzle. Broken clouds.3 mph94%29.92 "Hg4 mi
2:20 PM57 °FDrizzle. Partly sunny.5 mph94%29.92 "Hg4 mi
1:50 PM57 °FDrizzle. Low clouds.5 mph100%29.92 "Hg3 mi
1:20 PM57 °FDrizzle. Low clouds.5 mph94%29.92 "Hg2 mi
12:50 PM57 °FLight rain. Low clouds.5 mph94%29.92 "Hg3 mi
12:20 PM57 °FDrizzle. Partly sunny.5 mph94%29.92 "Hg3 mi
11:50 AM57 °FDrizzle. Low clouds.6 mph94%29.92 "Hg3 mi
11:20 AM57 °FFog.5 mph94%29.92 "Hg3 mi
10:50 AM57 °FFog.5 mph94%29.92 "Hg2 mi
10:20 AM55 °FLight rain. Partly sunny.6 mph100%29.92 "Hg2 mi
9:50 AM55 °FDrizzle. Fog.5 mph100%29.92 "Hg2 mi
9:20 AM55 °FFog.5 mph100%29.92 "Hg2 mi
8:50 AM55 °FFog.5 mph100%29.92 "Hg2 mi
8:20 AM55 °FDrizzle. Low clouds.3 mph100%29.92 "Hg2 mi
7:50 AM55 °FDrizzle. Partly sunny.3 mph94%29.89 "Hg2 mi
7:20 AM55 °FPassing clouds.3 mph94%29.89 "Hg2 mi
6:50 AM55 °FLight rain. Passing clouds.3 mph94%29.89 "Hg3 mi
6:20 AM55 °FLight rain. Passing clouds.3 mph94%29.86 "Hg3 mi
5:50 AM54 °FLight rain. Passing clouds.2 mph100%29.86 "Hg3 mi
5:20 AM54 °FLight rain. Passing clouds.3 mph100%29.86 "Hg4 mi
4:50 AM54 °FPassing clouds.3 mph100%29.89 "Hg4 mi
4:20 AM54 °FPassing clouds.5 mph100%29.89 "Hg4 mi
3:50 AM54 °FPassing clouds.5 mph94%29.89 "Hg4 mi
3:20 AM54 °FPassing clouds.5 mph94%29.89 "Hg4 mi
Weather by CustomWeather, © 2014

See weather overviewHow to use our weather pages